星链-11233 (STARLINK-11233)

导读 | 豆包AI

STARLINK-11233是美国SpaceX星链星座的卫星,于2024年9月13日发射入轨,属于星链低轨互联网星座扩容任务的一部分。星链系统旨在为全球提供高速低延迟宽带互联网服务,该卫星延续了星链标准设计,加入了近地轨道卫星组网,推进全球网络覆盖布局。

Basic Information
目录编号:
61061
目录名称:
STARLINK-11233
国际标识:
2024-164M
轨道中心:
EARTH
卫星名称:
星链-11233
卫星全名:
星链-11233 (STARLINK-11233)
卫星状态:
在轨 (已飞行619 天)
发射日期:
2024-09-13 UTC
国别 :
美国 (US)
星等 :
--
Orbit Information
数据来源 国际轨道数据 AOE轨道数据
星历时间 2026-05-24T04:39:58+0800
1天前
查看轨道信息
2026-05-22T02:00:00+0800
3天前
查看轨道信息
半长轴 6737.853km 6737.809km
偏心率 0.0001112 0.0001504
轨道倾角 53.158° 53.157°
近地点辐角 67.335° 82.641°
升交点赤经 300.826° 311.232°
平近点角 292.779° 220.928°
近地点 358.966km 358.658km
远地点 360.466km 360.686km
周期 91.736分钟 91.736分钟
每日圈数 15.697139 15.697292
Detailed Information
固有亮度:
5
最大亮度:
2.5
卫星平台:
Starlink V1.0
覆盖范围:
全球
运营商:
太空探索技术公司
运营商所在国:
美国
制造商(研发单位):
太空探索技术公司
制造商所在国:
美国
使用方式:
暂无
Satellite Introduction
Starlink 计划是 SpaceX 推出的全球卫星互联网项目,通过发射低轨道卫星,为全球尤其是偏远地区提供高速、低延迟的互联网服务。自 2019 年起,Starlink 已部署数千颗卫星,旨在缩小全球数字鸿沟,推动互联网普及。该项目还为军事、航空等行业提供通信支持,带来广泛经济效益。
2D Orbit Map
3D Orbit Map
Orbit Altitude Analysis Chart
Orbit Inclination Analysis Chart
Orbit Comprehensive Analysis Chart
View Comprehensive Chart